Change the Weather History Date:

Thursday, October 3, 2013

  Actual Average Record
Temperature  
Mean Temperature 35 °F 48 °F  
Max Temperature 39 °F 62 °F 86 °F (2010)
Min Temperature 30 °F 34 °F 18 °F (1999)
Degree Days  
Heating Degree Days 30    
Month to date heating degree days 77  
Since 1 July heating degree days 324  
Cooling Degree Days 0    
Month to date cooling degree days 0  
Year to date cooling degree days 247  
Moisture  
Dew Point 31 °F    
Average Humidity 88    
Maximum Humidity 100    
Minimum Humidity 75    
Precipitation  
Precipitation 0.12 in 0.03 in 0.34 in (1967)
Month to date precipitation T 0.09  
Year to date precipitation 9.46 9.26  
Snow  
Snow 0.00 in - - ()
Snow Depth 0.00 in    
Sea Level Pressure  
Sea Level Pressure 29.97 in    
Wind  
Wind Speed 16 mph (NNE)    
Max Wind Speed 30 mph    
Max Gust Speed 39 mph    
Visibility 6 miles    
Events Fog , Snow    
T = Trace of Precipitation, MM = Missing Value Source: NWS Daily Summary

Daily Weather History Graph

Daily Weather History Graph

Search for Another Location

Airport or City:

Trip Planner

Search our weather history database for the weather conditions in past years. The results will help you decide how hot, cold, wet, or windy it might be!

Date:

Astronomy

Oct. 03, 2013 Rise Set
Actual Time 7:31 AM MDT 7:06 PM MDT
Civil Twilight 7:01 AM MDT 7:35 PM MDT
Nautical Twilight 6:27 AM MDT 8:09 PM MDT
Astronomical Twilight 5:53 AM MDT 8:44 PM MDT
Moon 6:06 AM MDT (10/3) 6:17 PM MDT (10/3)
Length of Visible Light 12h 33m
Length of Day
11h 34m
Waning Crescent, 2% of the Moon is Illuminated
Oct 3
Waning Crescent
Oct 4
New
Oct 11
First Quarter
Oct 18
Full
Oct 26
Last Quarter

Hourly Weather History & Observations

Time (MDT) Temp. Windchill Dew Point Humidity Pressure Visibility Wind Dir Wind Speed Gust Speed Precip Events Conditions
12:53 AM 39.0 °F 34.0 °F 33.1 °F 79% 29.84 in 10.0 mi NNE 6.9 mph - 0.00 in   Overcast
1:13 AM 37.4 °F 31.4 °F 33.8 °F 87% 29.85 in 10.0 mi NNE 8.1 mph - N/A   Overcast
1:53 AM 37.9 °F 33.5 °F 33.1 °F 83% 29.83 in 10.0 mi ENE 5.8 mph - N/A   Overcast
2:53 AM 37.0 °F 28.5 °F 34.0 °F 89% 29.82 in 10.0 mi NNE 13.8 mph - N/A   Overcast
3:07 AM 37.4 °F 28.9 °F 33.8 °F 87% 29.83 in 10.0 mi NNE 13.8 mph - N/A   Overcast
3:53 AM 37.0 °F 29.3 °F 34.0 °F 89% 29.82 in 10.0 mi NNE 11.5 mph - N/A   Overcast
4:53 AM 36.0 °F 25.3 °F 34.0 °F 93% 29.80 in 10.0 mi NNE 19.6 mph 26.5 mph N/A   Overcast
5:06 AM 35.6 °F 25.2 °F 33.8 °F 93% 29.82 in 10.0 mi NNE 18.4 mph 28.8 mph N/A   Overcast
5:16 AM 35.6 °F 24.8 °F 33.8 °F 93% 29.82 in 10.0 mi NNE 19.6 mph - N/A   Overcast
5:36 AM 35.6 °F 24.8 °F 33.8 °F 93% 29.82 in 10.0 mi NNE 19.6 mph - N/A   Overcast
5:53 AM 34.0 °F 21.3 °F 32.0 °F 92% 29.80 in 9.0 mi NNE 25.3 mph 34.5 mph 0.00 in Snow Light Snow
6:31 AM 33.8 °F 21.6 °F 32.0 °F 93% 29.82 in 7.0 mi NNE 23.0 mph 28.8 mph 0.00 in Snow Light Snow
6:53 AM 34.0 °F 21.5 °F 32.0 °F 92% 29.82 in 4.0 mi NNE 24.2 mph 29.9 mph 0.00 in Snow Light Snow
7:08 AM 33.8 °F 22.2 °F 32.0 °F 93% 29.82 in 2.5 mi NNE 20.7 mph 29.9 mph 0.00 in Snow Light Snow
7:14 AM 33.8 °F 22.2 °F 30.2 °F 87% 29.82 in 1.8 mi NNE 20.7 mph 29.9 mph 0.00 in Snow Light Snow
7:30 AM 33.8 °F 22.5 °F 32.0 °F 93% 29.82 in 1.0 mi NNE 19.6 mph - 0.01 in Snow Light Snow
7:39 AM 33.8 °F 21.3 °F 32.0 °F 93% 29.82 in 1.0 mi NNE 24.2 mph - 0.01 in Snow Light Snow
7:53 AM 33.1 °F 20.3 °F 32.0 °F 96% 29.83 in 0.8 mi NNE 24.2 mph 32.2 mph 0.02 in Snow Light Snow
8:18 AM 32.0 °F 18.1 °F 30.2 °F 93% 29.83 in 0.5 mi NNE 27.6 mph 34.5 mph 0.02 in Fog , Snow Snow
8:44 AM 32.0 °F 18.9 °F 32.0 °F 100% 29.84 in 0.5 mi NNE 24.2 mph 33.4 mph 0.03 in Fog , Snow Snow
8:51 AM 32.0 °F 18.6 °F 32.0 °F 100% 29.85 in 0.5 mi NNE 25.3 mph - 0.04 in Fog , Snow Snow
8:53 AM 32.0 °F 18.1 °F 32.0 °F 100% 29.87 in 0.2 mi NNE 27.6 mph 32.2 mph 0.04 in Fog , Snow Heavy Snow
9:53 AM 32.0 °F 17.6 °F 30.9 °F 96% 29.91 in 0.5 mi NNE 29.9 mph 36.8 mph 0.03 in Fog , Snow Snow
10:53 AM 32.0 °F 18.1 °F 30.9 °F 96% 29.95 in 0.2 mi NNE 27.6 mph 33.4 mph 0.03 in Fog Fog
5:53 PM 32.0 °F 18.9 °F 28.0 °F 85% 30.19 in 10.0 mi NNE 24.2 mph 29.9 mph N/A   Overcast
6:53 PM 33.1 °F 21.5 °F 27.0 °F 78% 30.22 in 10.0 mi North 19.6 mph - N/A   Overcast
7:53 PM 32.0 °F 23.6 °F 28.0 °F 85% 30.26 in 10.0 mi North 10.4 mph - N/A   Overcast
8:12 PM 32.0 °F 19.2 °F 28.4 °F 87% 30.22 in 1.8 mi North 23.0 mph - 0.00 in Snow Light Snow
8:18 PM 30.2 °F 17.4 °F 28.4 °F 93% 30.22 in 1.0 mi North 20.7 mph - 0.00 in Snow Light Snow
8:33 PM 30.2 °F 21.9 °F 30.2 °F 100% 30.23 in 2.5 mi North 9.2 mph - 0.00 in Snow Light Snow
8:40 PM 30.2 °F 21.3 °F 30.2 °F 100% 30.23 in 6.0 mi North 10.4 mph - 0.00 in Snow Light Snow
8:53 PM 30.9 °F 22.8 °F 28.9 °F 92% 30.30 in 9.0 mi NNE 9.2 mph - 0.00 in Snow Light Snow
9:30 PM 30.2 °F 18.9 °F 28.4 °F 93% 30.24 in 9.0 mi NE 16.1 mph - 0.00 in   Overcast
9:44 PM 30.2 °F 18.5 °F 28.4 °F 93% 30.24 in 10.0 mi NE 17.3 mph - 0.00 in   Overcast
10:53 PM 30.0 °F 19.1 °F 28.9 °F 96% 30.33 in 7.0 mi NE 15.0 mph - 0.00 in Snow Light Snow
11:53 PM 30.0 °F 19.5 °F 28.0 °F 92% 30.35 in 10.0 mi NE 13.8 mph - 0.00 in   Overcast